TimeCDT,TemperatureF,Dew PointF,Humidity,Sea Level PressureIn,VisibilityMPH,Wind Direction,Wind SpeedMPH,Gust SpeedMPH,PrecipitationIn,Events,Conditions,WindDirDegrees,DateUTC
12:15 AM,81.0,66.4,61,29.74,10.0,South,21.9,28.8,N/A,,Clear,180,2013-06-25 05:15:00
12:35 AM,81.0,67.1,63,29.74,10.0,South,21.9,31.1,N/A,,Clear,180,2013-06-25 05:35:00
12:55 AM,80.6,67.5,64,29.74,10.0,South,24.2,29.9,N/A,,Clear,180,2013-06-25 05:55:00
1:15 AM,80.6,68.0,65,29.75,10.0,South,25.3,33.4,N/A,,Clear,190,2013-06-25 06:15:00
1:35 AM,79.9,68.0,67,29.76,10.0,South,21.9,28.8,N/A,,Clear,190,2013-06-25 06:35:00
1:55 AM,79.9,68.2,67,29.76,10.0,South,20.7,28.8,N/A,,Clear,180,2013-06-25 06:55:00
2:15 AM,79.9,68.4,68,29.76,10.0,South,19.6,28.8,N/A,,Clear,190,2013-06-25 07:15:00
2:35 AM,79.3,68.4,69,29.75,10.0,South,19.6,26.5,N/A,,Clear,180,2013-06-25 07:35:00
2:55 AM,79.2,68.4,69,29.74,10.0,South,20.7,26.5,N/A,,Clear,180,2013-06-25 07:55:00
3:15 AM,78.8,68.2,70,29.74,10.0,South,16.1,24.2,N/A,,Clear,190,2013-06-25 08:15:00
3:35 AM,78.3,68.5,72,29.75,10.0,South,13.8,-,N/A,,Clear,190,2013-06-25 08:35:00
3:55 AM,77.9,68.9,74,29.75,10.0,South,10.4,-,N/A,,Clear,190,2013-06-25 08:55:00
4:15 AM,77.0,69.3,77,29.73,10.0,South,5.8,-,N/A,,Clear,190,2013-06-25 09:15:00
4:35 AM,76.3,69.3,79,29.73,10.0,SSW,6.9,-,N/A,Thunderstorm,Clear,200,2013-06-25 09:35:00
4:55 AM,76.1,67.6,75,29.74,10.0,SW,16.1,24.2,N/A,,Clear,220,2013-06-25 09:55:00
5:15 AM,78.6,58.3,50,29.74,10.0,SW,23.0,27.6,N/A,,Scattered Clouds,220,2013-06-25 10:15:00
5:35 AM,78.1,59.9,53,29.75,10.0,SSW,21.9,31.1,N/A,,Scattered Clouds,200,2013-06-25 10:35:00
5:55 AM,77.0,59.7,55,29.78,10.0,SW,15.0,25.3,N/A,Thunderstorm,Scattered Clouds,220,2013-06-25 10:55:00
6:15 AM,75.6,60.8,60,29.81,10.0,SW,17.3,31.1,N/A,Rain-Thunderstorm,Light Thunderstorms and Rain,220,2013-06-25 11:15:00
6:35 AM,71.4,65.1,80,29.82,7.0,South,9.2,-,0.04,Rain-Thunderstorm,Thunderstorms and Rain,190,2013-06-25 11:35:00
6:55 AM,71.1,64.9,81,29.80,7.0,South,17.3,25.3,0.07,Rain,Light Rain,190,2013-06-25 11:55:00
7:15 AM,71.8,65.7,81,29.78,10.0,South,18.4,25.3,N/A,,Scattered Clouds,180,2013-06-25 12:15:00
7:35 AM,73.2,64.0,73,29.78,10.0,SSE,17.3,29.9,N/A,,Mostly Cloudy,160,2013-06-25 12:35:00
7:55 AM,71.6,63.0,74,29.79,10.0,South,20.7,25.3,N/A,Rain,Light Rain,170,2013-06-25 12:55:00
8:15 AM,71.1,62.8,75,29.77,10.0,SSE,19.6,26.5,N/A,,Scattered Clouds,160,2013-06-25 13:15:00
8:35 AM,72.5,62.6,71,29.78,10.0,SSE,19.6,27.6,N/A,,Mostly Cloudy,160,2013-06-25 13:35:00
8:55 AM,74.1,62.1,66,29.77,10.0,SSE,13.8,20.7,N/A,,Overcast,160,2013-06-25 13:55:00
9:15 AM,75.9,63.0,64,29.77,10.0,SSE,17.3,21.9,N/A,,Mostly Cloudy,160,2013-06-25 14:15:00
9:35 AM,78.3,62.6,58,29.77,10.0,South,19.6,27.6,N/A,,Scattered Clouds,170,2013-06-25 14:35:00
9:55 AM,81.5,63.7,55,29.77,10.0,South,16.1,24.2,N/A,,Scattered Clouds,170,2013-06-25 14:55:00
10:15 AM,81.5,66.0,59,29.75,10.0,South,19.6,27.6,N/A,,Scattered Clouds,170,2013-06-25 15:15:00
10:35 AM,80.6,67.6,65,29.75,10.0,SSE,20.7,25.3,N/A,,Clear,160,2013-06-25 15:35:00
10:55 AM,81.5,69.3,66,29.74,10.0,SSE,17.3,24.2,N/A,,Clear,150,2013-06-25 15:55:00
11:15 AM,81.5,69.6,67,29.73,10.0,SSE,19.6,25.3,N/A,,Clear,160,2013-06-25 16:15:00
11:35 AM,82.9,70.3,66,29.73,10.0,South,23.0,31.1,N/A,,Clear,170,2013-06-25 16:35:00
12:15 PM,83.1,70.9,66,29.72,10.0,South,17.3,29.9,N/A,,Clear,170,2013-06-25 17:15:00
12:35 PM,84.6,71.2,64,29.73,10.0,South,21.9,27.6,N/A,,Scattered Clouds,170,2013-06-25 17:35:00
12:55 PM,85.5,71.1,62,29.72,10.0,South,20.7,27.6,N/A,,Scattered Clouds,180,2013-06-25 17:55:00
1:15 PM,85.6,71.8,63,29.71,10.0,South,17.3,-,N/A,,Scattered Clouds,180,2013-06-25 18:15:00
1:35 PM,86.0,71.4,62,29.71,10.0,South,17.3,-,N/A,,Scattered Clouds,180,2013-06-25 18:35:00
1:55 PM,86.9,72.0,61,29.70,10.0,South,17.3,27.6,N/A,,Scattered Clouds,170,2013-06-25 18:55:00
2:15 PM,87.8,72.5,60,29.70,10.0,South,15.0,21.9,N/A,,Scattered Clouds,180,2013-06-25 19:15:00
2:35 PM,88.7,72.7,59,29.69,10.0,South,13.8,23.0,N/A,,Scattered Clouds,170,2013-06-25 19:35:00
2:55 PM,88.9,72.7,59,29.69,10.0,SSE,17.3,20.7,N/A,,Scattered Clouds,160,2013-06-25 19:55:00
3:15 PM,89.2,72.9,58,29.69,10.0,South,11.5,-,N/A,,Scattered Clouds,180,2013-06-25 20:15:00
3:35 PM,90.9,72.9,55,29.69,10.0,SSE,17.3,21.9,N/A,,Scattered Clouds,150,2013-06-25 20:35:00
3:55 PM,89.2,72.0,57,29.68,10.0,SSE,13.8,18.4,N/A,,Mostly Cloudy,150,2013-06-25 20:55:00
4:15 PM,89.6,72.1,56,29.68,10.0,South,16.1,24.2,N/A,,Mostly Cloudy,180,2013-06-25 21:15:00
4:35 PM,90.1,72.5,56,29.67,10.0,SSE,12.7,21.9,N/A,,Scattered Clouds,160,2013-06-25 21:35:00
4:38 PM,89.6,73.4,59,29.67,10.0,SSE,16.1,-,N/A,,Scattered Clouds,150,2013-06-25 21:38:00
4:55 PM,90.5,72.5,55,29.66,10.0,South,15.0,20.7,N/A,,Scattered Clouds,170,2013-06-25 21:55:00
5:15 PM,91.4,72.0,53,29.67,10.0,South,11.5,-,N/A,,Clear,190,2013-06-25 22:15:00
5:35 PM,91.8,70.7,50,29.66,10.0,South,10.4,-,N/A,,Clear,190,2013-06-25 22:35:00
5:55 PM,91.8,70.0,49,29.66,10.0,South,11.5,-,N/A,,Clear,190,2013-06-25 22:55:00
6:15 PM,91.4,71.1,51,29.66,10.0,South,12.7,-,N/A,,Clear,180,2013-06-25 23:15:00
6:35 PM,90.5,72.0,54,29.65,7.0,South,12.7,-,N/A,,Clear,170,2013-06-25 23:35:00
6:55 PM,89.6,72.3,57,29.66,10.0,SSE,10.4,-,N/A,,Scattered Clouds,150,2013-06-25 23:55:00
7:15 PM,88.9,72.5,58,29.66,10.0,SSE,9.2,-,N/A,,Scattered Clouds,150,2013-06-26 00:15:00
7:35 PM,88.0,73.0,61,29.66,10.0,ESE,4.6,-,N/A,,Mostly Cloudy,120,2013-06-26 00:35:00
7:55 PM,87.8,73.8,63,29.66,10.0,SE,5.8,-,N/A,,Mostly Cloudy,130,2013-06-26 00:55:00
8:15 PM,87.1,73.8,64,29.67,10.0,ESE,4.6,-,N/A,,Mostly Cloudy,120,2013-06-26 01:15:00
8:35 PM,86.2,74.3,68,29.67,10.0,ESE,4.6,-,N/A,,Mostly Cloudy,110,2013-06-26 01:35:00
8:55 PM,85.3,75.0,71,29.67,10.0,ESE,4.6,-,N/A,,Mostly Cloudy,110,2013-06-26 01:55:00
9:15 PM,84.0,75.6,76,29.66,10.0,SE,3.5,-,N/A,,Scattered Clouds,130,2013-06-26 02:15:00
9:35 PM,84.0,74.3,72,29.67,10.0,Calm,Calm,-,N/A,,Clear,0,2013-06-26 02:35:00
9:55 PM,82.9,75.2,77,29.67,10.0,East,4.6,-,N/A,,Clear,90,2013-06-26 02:55:00
10:15 PM,81.7,76.1,83,29.68,10.0,East,3.5,-,N/A,,Clear,100,2013-06-26 03:15:00
10:35 PM,80.1,75.6,86,29.70,10.0,Calm,Calm,-,N/A,,Clear,0,2013-06-26 03:35:00
10:55 PM,79.0,75.7,90,29.70,10.0,NW,4.6,-,N/A,,Clear,320,2013-06-26 03:55:00
11:15 PM,79.9,75.6,87,29.70,10.0,East,3.5,-,N/A,,Clear,90,2013-06-26 04:15:00
11:35 PM,79.0,75.4,89,29.69,10.0,Calm,Calm,-,N/A,,Clear,0,2013-06-26 04:35:00
11:55 PM,77.5,74.8,91,29.70,10.0,WSW,3.5,-,N/A,,Clear,250,2013-06-26 04:55:00